FLOCK 4Q 32

导读 | 星芒AI

FLOCK 4Q 32 是由 Planet Labs 运营的 Dove 系列卫星之一,属于其 Flock 4Q 群组。该卫星主要用于地球观测,具备高分辨率多光谱成像能力,能够提供每日更新的全球影像数据。它运行在低地球轨道,支持农业监测、环境研究、城市规划等多个领域的应用。Flock 4Q 32 与其他 Dove 卫星协同工作,构成 Planet 的大规模遥感星座,提升数据获取频率和覆盖范围。

基本信息
目录编号:
58310
目录名称:
FLOCK 4Q 32
国际标识:
2023-174BG
轨道中心:
EARTH
卫星名称:
FLOCK 4Q 32
卫星全名:
--
卫星状态:
已陨落 最后检测时间 2025-04-10
发射日期:
2023-11-11 UTC
国别 :
美国 (US)
星等 :
--
轨道信息
数据来源 国际轨道数据
星历时间: 2025-04-07T12:43:56+0800
轨道信息已过期244天
半长轴: 6589.954km
偏心率: 0.0014255
轨道倾角: 97.388°
近地点辐角 271.436°
升交点赤经 185.386°
平近点角 88.529°
近地点: 202.425km
远地点: 221.213km
周期: 88.733分钟
每日圈数: 16.228531
详细信息
使用方式:
暂无